Precipitable_Water
0.08 0.07 0.06 0.08 0.10 0.10 0.10 0.10 0.10 0.13 0.18 0.18 0.14 0.14 0.15 0.16 0.15 0.14 0.17 0.20 0.21 0.27 0.33 0.30 0.40 0.54 0.64 0.73 0.76 0.81 0.78 0.76 0.78 0.72 0.65 0.59 0.51 0.53 0.52 0.56 0.56 0.58 0.60 0.63
0.05 0.05 0.08 0.07 0.07 0.06 0.06 0.05 0.06 0.09 0.18 0.16 0.15 0.11 0.16 0.16 0.15 0.15 0.16 0.17 0.19 0.22 0.30 0.32 0.32 0.46 0.56 0.63 0.69 0.76 0.79 0.75 0.76 0.76 0.70 0.65 0.55 0.54 0.53 0.55 0.57 0.58 0.59 0.62
0.06 0.08 0.08 0.07 0.07 0.07 0.06 0.06 0.05 0.05 0.08 0.09 0.11 0.08 0.08 0.09 0.13 0.14 0.15 0.16 0.19 0.19 0.23 0.30 0.29 0.40 0.50 0.56 0.66 0.71 0.73 0.76 0.76 0.78 0.75 0.69 0.64 0.58 0.53 0.52 0.54 0.56 0.60 0.61
0.06 0.09 0.07 0.07 0.08 0.09 0.06 0.11 0.10 0.08 0.08 0.05 0.16 0.06 0.08 0.11 0.10 0.12 0.10 0.14 0.16 0.21 0.21 0.28 0.30 0.35 0.46 0.52 0.64 0.69 0.71 0.75 0.78 0.74 0.69 0.64 0.55 0.45 0.46 0.48 0.52 0.56 0.59 0.60
0.07 0.07 0.05 0.07 0.07 0.12 0.10 0.13 0.12 0.12 0.10 0.10 0.07 0.08 0.05 0.11 0.09 0.08 0.14 0.12 0.14 0.18 0.23 0.22 0.28 0.32 0.44 0.53 0.57 0.67 0.72 0.71 0.77 0.72 0.66 0.62 0.59 0.55 0.52 0.52 0.51 0.54 0.58 0.61
0.07 0.09 0.08 0.07 0.10 0.12 0.11 0.10 0.11 0.11 0.10 0.06 0.07 0.09 0.06 0.06 0.07 0.10 0.14 0.15 0.13 0.15 0.19 0.23 0.25 0.32 0.39 0.51 0.56 0.61 0.67 0.70 0.73 0.72 0.66 0.59 0.58 0.54 0.52 0.51 0.49 0.51 0.55 0.59
0.08 0.08 0.08 0.11 0.08 0.12 0.10 0.10 0.06 0.06 0.07 0.05 0.10 0.11 0.06 0.08 0.12 0.15 0.15 0.17 0.16 0.17 0.16 0.18 0.21 0.23 0.34 0.46 0.54 0.61 0.65 0.65 0.71 0.68 0.65 0.59 0.58 0.56 0.54 0.52 0.48 0.48 0.50 0.54
0.06 0.05 0.07 0.08 0.11 0.12 0.10 0.10 0.08 0.06 0.05 0.06 0.10 0.09 0.07 0.16 0.18 0.17 0.17 0.20 0.20 0.19 0.18 0.19 0.22 0.22 0.26 0.40 0.54 0.58 0.61 0.62 0.66 0.64 0.62 0.60 0.59 0.57 0.56 0.56 0.52 0.49 0.49 0.52
0.07 0.07 0.08 0.12 0.13 0.17 0.14 0.12 0.17 0.13 0.13 0.11 0.11 0.10 0.09 0.13 0.15 0.17 0.15 0.14 0.20 0.21 0.21 0.20 0.22 0.24 0.23 0.33 0.50 0.58 0.62 0.63 0.62 0.60 0.61 0.60 0.60 0.57 0.55 0.57 0.56 0.53 0.53 0.54
0.11 0.07 0.08 0.10 0.13 0.13 0.16 0.19 0.12 0.15 0.09 0.09 0.10 0.10 0.09 0.10 0.17 0.18 0.21 0.20 0.16 0.19 0.20 0.21 0.21 0.27 0.28 0.27 0.47 0.60 0.65 0.59 0.61 0.59 0.59 0.58 0.59 0.60 0.58 0.59 0.56 0.54 0.54 0.55
0.13 0.12 0.08 0.11 0.08 0.10 0.15 0.16 0.18 0.18 0.16 0.10 0.09 0.12 0.16 0.14 0.15 0.28 0.30 0.27 0.22 0.19 0.21 0.24 0.26 0.27 0.28 0.30 0.40 0.56 0.64 0.63 0.61 0.58 0.58 0.58 0.59 0.62 0.60 0.58 0.58 0.57 0.56 0.55
0.14 0.13 0.09 0.06 0.08 0.14 0.15 0.15 0.15 0.12 0.10 0.12 0.12 0.09 0.14 0.19 0.38 0.36 0.35 0.33 0.35 0.32 0.28 0.29 0.33 0.30 0.31 0.31 0.34 0.52 0.61 0.62 0.62 0.61 0.58 0.56 0.58 0.61 0.59 0.57 0.60 0.62 0.56 0.56
0.16 0.13 0.07 0.04 0.05 0.11 0.09 0.13 0.14 0.16 0.17 0.11 0.11 0.09 0.15 0.22 0.32 0.36 0.34 0.37 0.34 0.34 0.34 0.32 0.35 0.31 0.32 0.34 0.34 0.45 0.59 0.63 0.64 0.63 0.57 0.55 0.56 0.57 0.57 0.56 0.60 0.62 0.60 0.57
0.19 0.11 0.09 0.07 0.06 0.09 0.09 0.10 0.12 0.16 0.12 0.14 0.13 0.13 0.16 0.25 0.32 0.36 0.38 0.41 0.40 0.35 0.37 0.36 0.36 0.36 0.32 0.38 0.39 0.41 0.55 0.66 0.64 0.63 0.57 0.53 0.52 0.54 0.57 0.56 0.59 0.62 0.62 0.58
0.16 0.09 0.09 0.10 0.10 0.11 0.10 0.10 0.11 0.15 0.19 0.16 0.16 0.16 0.24 0.29 0.35 0.37 0.44 0.44 0.43 0.38 0.39 0.38 0.39 0.42 0.39 0.43 0.46 0.49 0.57 0.67 0.66 0.63 0.57 0.54 0.55 0.54 0.58 0.56 0.57 0.63 0.64 0.60
0.17 0.09 0.11 0.08 0.07 0.09 0.08 0.10 0.16 0.21 0.21 0.20 0.20 0.18 0.27 0.35 0.40 0.41 0.43 0.44 0.42 0.42 0.43 0.44 0.42 0.47 0.46 0.46 0.52 0.58 0.61 0.68 0.71 0.65 0.60 0.61 0.58 0.55 0.56 0.56 0.56 0.62 0.64 0.61
0.13 0.11 0.09 0.07 0.06 0.08 0.05 0.10 0.12 0.18 0.22 0.21 0.15 0.21 0.28 0.35 0.36 0.38 0.40 0.43 0.43 0.44 0.48 0.48 0.47 0.47 0.54 0.53 0.55 0.62 0.66 0.72 0.72 0.67 0.65 0.64 0.62 0.58 0.55 0.56 0.56 0.60 0.62 0.61
0.12 0.11 0.12 0.08 0.08 0.04 0.05 0.10 0.14 0.19 0.18 0.24 0.24 0.26 0.30 0.33 0.38 0.39 0.38 0.40 0.44 0.46 0.52 0.53 0.53 0.50 0.55 0.61 0.64 0.68 0.72 0.72 0.73 0.69 0.66 0.66 0.66 0.64 0.61 0.57 0.55 0.59 0.63 0.59
0.14 0.13 0.10 0.08 0.07 0.07 0.07 0.08 0.11 0.12 0.15 0.25 0.24 0.27 0.30 0.36 0.40 0.38 0.41 0.39 0.43 0.47 0.51 0.57 0.59 0.57 0.56 0.60 0.64 0.70 0.73 0.77 0.76 0.73 0.69 0.68 0.71 0.69 0.65 0.58 0.56 0.60 0.63 0.59
0.13 0.14 0.12 0.09 0.07 0.05 0.07 0.09 0.13 0.18 0.15 0.22 0.24 0.24 0.28 0.31 0.26 0.32 0.42 0.43 0.42 0.43 0.49 0.53 0.59 0.60 0.58 0.60 0.64 0.66 0.72 0.78 0.77 0.79 0.76 0.76 0.74 0.71 0.66 0.63 0.58 0.61 0.65 0.60
0.10 0.11 0.10 0.09 0.08 0.08 0.10 0.10 0.18 0.12 0.14 0.23 0.23 0.24 0.25 0.26 0.31 0.39 0.44 0.44 0.45 0.39 0.43 0.51 0.56 0.60 0.59 0.62 0.63 0.61 0.69 0.72 0.81 0.83 0.82 0.77 0.75 0.72 0.71 0.67 0.64 0.63 0.65 0.63
0.09 0.09 0.09 0.09 0.08 0.07 0.11 0.15 0.14 0.16 0.18 0.22 0.22 0.22 0.24 0.28 0.33 0.37 0.42 0.45 0.46 0.43 0.39 0.44 0.49 0.56 0.63 0.63 0.64 0.60 0.60 0.70 0.76 0.79 0.79 0.76 0.73 0.73 0.70 0.67 0.65 0.67 0.67 0.62
0.11 0.12 0.11 0.12 0.10 0.12 0.12 0.11 0.12 0.15 0.18 0.21 0.19 0.20 0.21 0.24 0.27 0.33 0.35 0.39 0.46 0.47 0.43 0.39 0.44 0.48 0.54 0.64 0.64 0.60 0.60 0.64 0.67 0.71 0.75 0.76 0.74 0.72 0.69 0.63 0.62 0.65 0.68 0.65
0.11 0.13 0.12 0.11 0.11 0.12 0.13 0.14 0.14 0.15 0.16 0.19 0.19 0.19 0.18 0.20 0.25 0.27 0.32 0.33 0.40 0.47 0.48 0.47 0.39 0.44 0.47 0.53 0.64 0.66 0.67 0.66 0.64 0.65 0.71 0.75 0.74 0.71 0.69 0.67 0.67 0.68 0.66 0.63
0.11 0.13 0.11 0.12 0.13 0.14 0.15 0.15 0.16 0.16 0.17 0.18 0.19 0.19 0.18 0.18 0.21 0.24 0.27 0.30 0.33 0.40 0.45 0.52 0.47 0.40 0.44 0.49 0.52 0.66 0.72 0.71 0.66 0.64 0.68 0.73 0.75 0.74 0.70 0.70 0.71 0.72 0.73 0.70
0.16 0.16 0.14 0.12 0.12 0.14 0.12 0.15 0.18 0.16 0.16 0.17 0.17 0.18 0.18 0.16 0.17 0.20 0.23 0.26 0.30 0.32 0.37 0.44 0.52 0.49 0.42 0.44 0.49 0.53 0.64 0.72 0.72 0.67 0.66 0.72 0.74 0.75 0.76 0.75 0.74 0.80 0.79 0.82
Wind_Speed
23 19 21 24 24 27 31 33 36 36 36 36 39 42 41 38 39 38 37 38 35 33 35 36 38 39 39 39 39 38 36 34 34 32 30 28 27 24 22 19 18 15 13 10
19 17 21 26 28 30 32 35 35 36 32 38 37 50 46 45 44 40 40 40 41 37 34 35 38 41 42 41 40 40 38 36 36 35 33 30 29 26 24 21 20 18 15 13
17 19 25 27 28 31 31 34 35 39 40 41 43 51 46 48 47 46 44 42 41 41 37 35 37 40 42 43 42 42 41 38 37 36 35 32 30 27 25 24 22 20 17 15
19 23 27 28 25 28 30 28 36 39 36 32 30 40 46 41 43 46 48 44 42 39 39 37 37 39 41 44 44 43 42 41 39 38 37 36 33 30 28 26 24 22 20 17
20 26 28 24 27 29 29 31 34 37 39 41 43 37 45 37 45 49 43 44 42 40 40 40 39 41 41 43 45 45 44 43 42 41 39 38 36 33 30 28 26 24 22 20
24 24 22 27 28 29 33 34 37 35 33 38 42 39 45 46 47 45 42 44 45 43 42 42 42 42 44 44 46 46 46 45 44 43 41 40 38 35 33 30 28 26 24 22
22 18 24 22 31 29 31 27 26 24 26 33 28 32 52 45 41 39 42 42 42 42 45 45 44 42 45 46 46 48 48 47 46 44 43 42 40 38 36 34 31 28 27 24
22 23 26 28 29 29 30 23 23 25 29 33 31 35 38 33 40 46 45 45 44 42 42 43 44 44 45 46 48 49 49 48 47 45 44 43 42 40 38 36 33 31 29 27
23 22 34 27 27 21 19 18 22 27 32 29 28 39 47 44 45 43 44 46 41 39 40 43 44 44 46 46 49 51 49 49 48 46 44 44 43 42 40 38 36 33 31 29
23 29 26 25 21 18 16 19 16 17 19 19 23 29 30 33 33 31 37 41 48 43 38 39 43 43 43 45 46 50 51 50 49 47 45 44 43 42 41 40 38 35 33 31
24 22 31 20 20 22 15 11 13 18 17 19 22 20 22 26 29 20 17 22 30 38 37 36 39 43 44 43 46 47 50 51 50 48 46 44 43 42 41 41 40 37 35 33
21 22 24 31 26 14 9 14 16 15 19 25 28 28 24 23 16 20 20 19 18 24 33 32 34 38 41 44 44 47 47 50 50 48 46 45 44 43 41 41 41 39 37 34
22 20 25 27 12 10 18 17 20 22 23 25 22 22 12 17 26 26 22 23 23 23 25 30 32 34 37 42 43 45 46 48 49 49 47 45 45 44 43 41 41 40 38 36
20 22 18 20 22 23 25 27 26 23 20 25 25 31 27 22 22 23 20 22 22 23 24 27 32 34 35 39 41 43 45 47 48 49 48 46 45 44 43 41 41 40 39 37
21 23 21 25 25 26 26 27 26 22 23 21 26 27 26 24 23 15 17 17 18 18 21 25 30 32 34 36 38 40 44 45 47 48 47 47 45 44 43 42 42 41 40 38
23 25 23 29 24 21 25 24 18 17 19 18 21 22 29 25 19 12 11 14 15 15 17 21 28 31 33 35 37 37 41 43 45 46 46 46 45 45 44 43 42 42 41 39
23 22 20 23 23 21 17 13 19 16 19 18 18 25 27 15 11 10 9 9 13 15 15 18 24 31 32 33 34 35 38 42 43 45 45 45 45 45 45 44 43 43 42 40
28 22 21 22 19 15 15 18 18 17 16 17 18 23 23 14 10 7 6 6 9 12 12 14 19 26 32 32 33 35 35 40 42 43 44 45 45 45 45 45 44 44 43 41
23 19 19 18 18 22 18 15 15 20 17 14 16 20 17 10 12 5 6 5 5 7 10 11 14 20 28 32 34 35 33 38 40 41 42 43 45 45 46 46 45 44 43 42
20 20 18 17 18 17 16 20 19 19 11 11 13 14 14 11 5 7 7 5 4 4 7 9 12 16 21 27 31 35 34 35 38 39 40 41 43 44 45 45 45 45 44 42
20 20 22 22 23 20 19 19 15 8 11 14 11 13 11 7 4 8 7 5 2 2 3 5 8 12 17 21 26 32 34 34 36 37 38 39 41 43 44 44 45 45 44 42
27 21 20 18 18 20 18 14 13 15 19 15 13 12 11 8 7 5 5 3 3 3 1 1 5 8 12 16 21 27 30 32 34 36 37 38 39 41 43 44 44 45 44 43
24 24 22 22 21 22 21 23 25 23 20 17 15 14 11 9 7 6 6 6 6 4 2 2 4 6 9 12 17 21 25 28 31 33 35 37 38 40 41 42 43 44 44 43
34 32 29 29 29 28 27 26 24 22 23 21 19 15 12 10 9 8 6 7 6 7 5 4 3 5 6 9 13 17 21 25 27 30 33 35 37 38 40 40 42 43 43 42
32 28 29 30 28 25 25 24 24 23 20 18 16 15 13 11 10 8 8 8 7 7 7 8 6 5 6 7 9 12 17 21 24 26 29 32 34 37 38 39 40 41 41 41
30 30 27 26 27 24 25 22 22 22 21 21 19 17 16 13 12 10 10 10 10 9 9 7 9 8 7 6 8 9 12 17 21 24 27 29 31 33 35 37 37 38 39 38
Wind_Direction
284 278 283 282 280 278 275 273 272 270 268 269 263 263 260 258 254 251 249 247 243 241 238 235 231 227 225 223 221 220 219 218 216 214 213 213 214 214 215 216 215 214 213 211
285 281 284 289 286 281 276 275 273 271 268 273 266 265 261 255 253 251 248 246 243 243 241 236 230 227 224 223 221 219 219 218 216 216 215 216 215 215 215 216 216 215 214 214
283 277 295 294 290 286 281 278 275 272 276 269 268 264 257 252 249 247 245 245 244 240 239 235 231 227 225 223 221 220 219 218 217 216 216 216 215 216 216 217 216 217 215 216
290 293 298 296 291 290 286 277 279 276 275 266 268 263 256 253 249 244 243 242 241 239 236 235 231 228 225 224 222 221 219 218 217 216 216 216 216 216 217 216 216 217 216 217
296 302 301 296 295 288 282 288 280 274 270 271 259 256 256 245 246 245 245 242 239 238 235 234 233 229 227 224 222 221 219 219 217 216 217 216 216 217 217 216 216 217 218 218
304 300 302 299 298 286 288 289 283 271 263 259 258 248 256 250 250 250 246 243 239 238 237 236 235 232 228 226 223 220 218 218 217 217 217 217 216 216 216 216 216 217 218 219
313 304 310 302 308 299 292 288 284 277 259 260 266 247 251 256 255 253 248 244 241 238 237 236 235 232 229 225 222 220 218 218 217 217 217 217 217 217 217 216 217 217 218 219
316 313 322 311 307 298 292 280 274 271 269 268 269 255 251 258 253 250 248 247 245 239 237 235 233 232 229 225 222 220 218 218 217 217 217 218 217 218 218 218 218 219 219 219
315 307 317 312 312 305 298 281 275 273 271 271 263 261 260 263 258 249 246 244 240 237 237 235 233 231 229 225 221 219 218 217 217 217 217 217 217 218 218 218 218 219 219 219
316 312 319 317 311 305 290 291 294 274 276 274 269 263 259 263 262 260 251 246 240 240 237 237 232 228 226 224 221 219 218 217 216 216 216 217 217 217 218 217 217 217 218 217
318 317 318 315 314 304 306 309 290 288 275 279 282 270 277 257 253 255 246 249 240 233 236 236 233 226 224 222 220 217 216 216 216 215 215 215 216 216 216 216 216 216 217 216
322 318 320 310 299 281 286 298 302 299 296 283 279 271 273 256 235 252 259 253 245 235 233 233 228 224 221 219 217 216 215 214 214 214 214 214 215 215 215 215 215 215 215 215
322 321 323 327 305 270 287 293 297 295 292 280 280 274 255 285 266 257 258 255 246 238 234 230 227 223 221 218 216 215 215 214 213 212 212 213 213 213 214 214 213 213 213 213
315 313 308 305 292 295 290 290 299 297 288 294 278 278 276 281 277 252 254 250 248 238 237 231 225 222 220 216 215 214 214 213 211 211 211 212 212 212 213 212 211 211 211 211
309 306 305 296 289 288 283 285 294 293 292 293 290 285 294 291 270 247 250 249 248 242 240 231 224 220 217 213 214 214 212 211 210 210 211 211 212 211 211 211 210 210 210 211
300 301 303 300 292 282 284 286 289 294 313 305 305 306 307 292 245 246 254 251 249 248 243 234 223 219 215 213 212 212 211 210 209 210 210 210 210 210 210 210 209 209 210 210
293 296 300 298 297 293 273 254 312 301 313 318 318 317 316 272 236 245 247 265 252 252 247 237 224 217 213 211 210 210 210 208 209 209 209 209 209 210 210 209 209 209 209 209
287 289 290 293 302 287 253 285 290 295 307 321 320 327 325 280 217 231 255 274 265 248 246 239 224 216 212 210 210 208 209 207 207 208 209 209 209 210 209 209 209 209 209 209
276 282 287 288 282 285 269 270 291 300 294 316 324 337 338 309 241 236 269 286 282 256 238 233 223 217 212 212 211 208 209 207 206 207 208 208 209 209 209 209 209 209 208 209
283 271 275 286 282 272 265 280 285 287 258 318 315 334 348 340 259 244 259 291 288 267 242 232 228 213 208 210 209 207 207 206 206 207 207 208 208 209 209 209 209 209 209 210
286 283 266 272 275 271 269 271 276 264 275 301 302 313 336 347 310 247 235 258 290 281 253 234 213 204 204 207 205 204 205 206 207 207 207 208 209 209 209 209 209 208 208 209
276 274 270 273 271 271 267 257 248 267 288 284 282 302 306 311 278 261 239 264 256 294 242 190 194 186 193 197 198 199 202 206 206 207 207 207 207 208 208 208 208 207 207 208
277 262 263 256 265 270 266 261 266 275 271 271 271 282 291 297 281 267 257 259 234 235 223 155 169 166 177 186 193 197 202 203 205 205 206 206 206 206 206 206 205 206 207 209
270 264 259 267 265 265 268 266 263 264 264 263 262 265 278 286 283 268 258 253 247 232 231 210 160 162 168 177 187 194 199 200 202 203 203 204 205 204 205 205 205 206 207 208
270 258 253 259 261 269 268 264 264 256 259 252 247 253 265 270 271 262 255 247 244 241 231 215 199 181 176 176 179 191 197 199 198 200 201 202 201 202 203 203 205 206 208 209
266 254 247 251 258 265 268 265 257 254 254 247 247 251 257 261 262 263 253 253 241 236 232 220 211 198 192 177 178 184 187 193 194 196 198 200 200 200 201 202 204 206 208 209